Regional Weather Roundup
Issued by NWS Little Rock, AR

Home | Current Version | Previous Version | Text Only | Print | Product List | Glossary Off
Versions: 1 2 3 4 5 6 7 8 9 10 11 12 13 14 15 16 17 18 19 20 21 22 23 24 25 26 27 28 29 30 31 32 33 34 35 36 37 38 39 40 41 42 43 44 45 46 47 48 49

000
ASUS44 KLZK 212205
RWRLZK

WEATHER ROUNDUP FOR ARKANSAS
NATIONAL WEATHER SERVICE LITTLE ROCK AR
400 PM CST SUN DEC 21 2014

NOTE: "FAIR" INDICATES FEW OR NO CLOUDS BELOW 12,000 FEET WITH NO
SIGNIFICANT WEATHER AND/OR OBSTRUCTIONS TO VISIBILITY.

ARZ001-003-010-029-212300-
NORTHWEST ARKANSAS

CITY           SKY/WX    TMP DP  RH WIND       PRES   REMARKS
FAYETTEVILLE   CLOUDY    45  38  76 S12       29.91F
FORT SMITH     CLOUDY    50  38  63 E9        29.92F
HARRISON       CLOUDY    45  37  73 SE13      29.93F
BENTONVILLE    CLOUDY    46  36  66 S8        29.90F
ROGERS         CLOUDY    46  38  73 SE9       29.90F
SILOAM SPGS    CLOUDY    46  36  66 S13       29.91F
HIGHFILL       CLOUDY    47  39  74 S9        29.89F
SPRINGDALE     CLOUDY    46  37  71 S14       29.92F
$$

ARZ004-005-016-212300-
NORTH CENTRAL ARKANSAS

CITY           SKY/WX    TMP DP  RH WIND       PRES   REMARKS
BATESVILLE     CLOUDY    50  37  62 SE8       30.00F
FLIPPIN        CLOUDY    46  36  66 E6        29.96R
MTN HOME       CLOUDY    47  36  65 SE8       29.95F
$$

ARZ040-041-212300-
WEST CENTRAL ARKANSAS

CITY           SKY/WX    TMP DP  RH WIND       PRES   REMARKS
MENA           CLOUDY    52  43  71 SE5       29.91F
MOUNT IDA      PTSUNNY   52  40  63 SE6       29.91F
$$

ARZ009-017-025-026-028-212300-
NORTHEAST ARKANSAS

CITY           SKY/WX    TMP DP  RH WIND       PRES   REMARKS
CORNING        MOCLDY    45  36  70 NE5       30.06R
JONESBORO      CLEAR     49  40  71 NE6       30.03F
NEWPORT        PTCLDY    50  39  65 E6        30.04F
WALNUT RIDGE   MOCLDY    46  34  61 NE7       30.04R
BLYTHEVILLE    CLEAR     51  36  56 NE6       30.05F
$$

ARZ022-023-033-042-044-212300-
CENTRAL ARKANSAS

CITY           SKY/WX    TMP DP  RH WIND       PRES   REMARKS
LITTLE ROCK    MOCLDY    54  35  48 SE15      29.99F
N LITTLE ROCK  MOCLDY    51  39  62 SE9G16    29.99F
JACKSONVILLE   PTCLDY    53  37  54 SE6       29.99F
SEARCY         CLOUDY    53  36  52 SE6       30.01F
HOT SPRINGS    PTSUNNY   54  38  54 SE7       29.95F
RUSSELLVILLE   CLOUDY    50  38  63 E6        29.95F
CLINTON        CLOUDY    50  37  62 SE3       29.99F
$$

ARZ036-212300-
EAST ARKANSAS

CITY           SKY/WX    TMP DP  RH WIND       PRES   REMARKS
WEST MEMPHIS   CLEAR     55  34  45 CALM      30.02F
$$

ARZ050-053-066-070-073-212300-
SOUTHWEST ARKANSAS

CITY           SKY/WX    TMP DP  RH WIND       PRES   REMARKS
ARKADELPHIA    FAIR      55  44  66 SE6       29.97F
CAMDEN         SUNNY     57  37  47 MISG      29.97F
TEXARKANA      CLOUDY    54  44  69 SE8       29.95F
EL DORADO      SUNNY     57  41  55 SE8       29.97F
DE QUEEN       CLOUDY    53  43  68 SE10      29.91F
$$

ARZ056-057-069-212300-
SOUTHEAST ARKANSAS

CITY           SKY/WX    TMP DP  RH WIND       PRES   REMARKS
PINE BLUFF     CLEAR     54  37  52 SE12      29.99F
STUTTGART      CLEAR     54  36  50 SE8       30.01F
MONTICELLO     SUNNY     56  38  50 SE6       30.00S

$$




USA.gov is the U.S. government's official web portal to all federal, state and local government web resources and services.